Regional Weather Roundup
Issued by NWS

Home | Current Version | Previous Version | Graphics & Text | Print | Product List | Glossary On
Versions: 1 2 3 4 5 6 7 8 9 10 11 12 13 14 15 16 17 18 19 20 21 22 23 24 25 26 27 28 29 30 31 32 33 34 35 36 37 38 39 40 41 42 43 44 45 46 47 48 49 50
000
ASUS45 KSLC 270110
RWRUT

UTAH REGIONAL WEATHER ROUNDUP
NATIONAL WEATHER SERVICE SALT LAKE CITY UT
700 PM MDT SUN APR 26 2015

UTZ001>011-023>025-270200-

NORTHERN UTAH

CITY           SKY/WX    TMP DP  RH WIND       PRES   REMARKS
BRIGHAM CITY   CLOUDY    52  33  47 NE3       30.06R
HILL AFB       NOT AVBL
LOGAN          CLOUDY    50  34  54 NW6       30.06R
OGDEN          CLOUDY    51  32  48 E7        30.05R
PROVO AIRPORT  PTSUNNY   48  32  53 NW12G23   30.03R
SALT LAKE CITY PTSUNNY   51  34  52 CALM      30.05S
VERNAL         CLOUDY    57  30  35 N18       29.88R
WENDOVER       SUNNY     57  16  19 N12G17    30.07R
HEBER CITY     CLOUDY    45  30  57 N13G20    30.03S
WEST JORDAN    CLOUDY    48  36  61 NW7       30.07R

$$

UTZ012>022-026-027-270200-

SOUTHERN/CENTRAL UTAH

CITY           SKY/WX    TMP DP  RH WIND       PRES   REMARKS
BLANDING       PTSUNNY   53  36  52 NW15G22   29.88R
BRYCE CANYON   CLOUDY    41  24  51 N18G26    29.98R
CEDAR CITY     PTSUNNY   50  26  39 N15G21    29.99S
DELTA          CLOUDY    50  31  47 N15G24    30.04R
HANKSVILLE     SUNNY     55  30  38 NW20G30   29.87R
MILFORD        SUNNY     52  24  33 NE23G29   30.01R
MOAB/CYNLANDS  CLOUDY    57  44  62 NW8       29.80R
PRICE          SUNNY     49  29  46 NW20G26   29.92R
ST GEORGE      MOCLDY    64  27  24 NE20      29.91S
KANAB          SUNNY     54  27  35 NW20G26   29.95R

$$

REGIONAL REPORTS     COLORADO/ARIZONA

CITY           SKY/WX    TMP DP  RH WIND       PRES   REMARKS
CRAIG, CO      CLOUDY    46  39  76 N18G26    29.88S
GRAND JUNCTION LGT RAIN  48  45  89 NE16      29.84R FOG
RIFLE          CLOUDY    48  41  76 W12       29.86R
MONTROSE       CLOUDY    48  39  71 SE8       29.85R
CORTEZ         CLOUDY    52  38  58 N13       29.80R
PAGE, AZ       CLOUDY    64  26  23 W13G26    29.81R
GRAND CANYON   SUNNY     48  27  44 NW9G18    29.92R
KINGMAN        SUNNY     64  21  19 N20G32    29.90S
FLAGSTAFF      CLOUDY    44  32  62 NW8       29.91S

$$

REGIONAL REPORTS    NEVADA/IDAHO/WYOMING

CITY           SKY/WX    TMP DP  RH WIND       PRES   REMARKS
LAS VEGAS, NV  MOSUNNY   72  16  12 NE14G20   29.85F
ELY            SUNNY     48  14  25 N15       30.09R
ELKO           SUNNY     50  20  30 N15       30.15R
POCATELLO, ID  PTSUNNY   55  26  32 W8        30.07R
BURLEY         SUNNY     54  23  30 W15       30.07R
EVANSTON, WY   CLOUDY    38  30  73 NW12      30.06R WCI  30
ROCK SPRINGS   CLOUDY    40  36  86 NE16      30.00R WCI  31
KEMMERER       MOSUNNY   39  32  75 NW17G26   30.03R WCI  30

$$


USA.gov is the U.S. government's official web portal to all federal, state and local government web resources and services.